TimeEST,TemperatureF,Dew PointF,Humidity,Sea Level PressureIn,VisibilityMPH,Wind Direction,Wind SpeedMPH,Gust SpeedMPH,PrecipitationIn,Events,Conditions,WindDirDegrees,DateUTC
12:53 AM,32.0,27.0,82,29.92,10.0,Calm,Calm,-,N/A,,Clear,0,2012-11-07 05:53:00
1:53 AM,32.0,26.1,79,29.92,10.0,Calm,Calm,-,N/A,,Clear,0,2012-11-07 06:53:00
2:53 AM,30.0,26.1,85,29.92,10.0,Calm,Calm,-,N/A,,Clear,0,2012-11-07 07:53:00
3:53 AM,28.9,25.0,85,29.91,10.0,Calm,Calm,-,N/A,,Clear,0,2012-11-07 08:53:00
4:53 AM,30.0,25.0,82,29.92,9.0,Calm,Calm,-,N/A,,Clear,0,2012-11-07 09:53:00
5:53 AM,28.0,25.0,88,29.93,9.0,Calm,Calm,-,N/A,,Clear,0,2012-11-07 10:53:00
6:53 AM,28.9,25.0,85,29.94,9.0,Calm,Calm,-,N/A,,Clear,0,2012-11-07 11:53:00
7:53 AM,28.9,25.0,85,29.95,8.0,Calm,Calm,-,N/A,,Clear,0,2012-11-07 12:53:00
8:53 AM,32.0,26.1,79,29.98,9.0,NNE,3.5,-,N/A,,Clear,30,2012-11-07 13:53:00
9:53 AM,37.0,28.9,73,29.97,10.0,NNE,3.5,-,N/A,,Clear,20,2012-11-07 14:53:00
10:53 AM,43.0,30.9,62,29.98,10.0,NNE,4.6,-,N/A,,Clear,30,2012-11-07 15:53:00
11:53 AM,48.0,28.0,46,29.96,10.0,North,6.9,-,N/A,,Clear,10,2012-11-07 16:53:00
12:53 PM,48.9,25.0,39,29.94,10.0,Variable,3.5,-,N/A,,Clear,0,2012-11-07 17:53:00
1:53 PM,51.1,27.0,39,29.94,10.0,NE,9.2,-,N/A,,Clear,50,2012-11-07 18:53:00
2:53 PM,50.0,26.1,39,29.95,10.0,North,8.1,-,N/A,,Clear,10,2012-11-07 19:53:00
3:53 PM,50.0,24.1,36,29.96,10.0,NNW,8.1,-,N/A,,Clear,340,2012-11-07 20:53:00
4:53 PM,48.0,26.1,42,29.99,10.0,NNE,9.2,-,N/A,,Clear,30,2012-11-07 21:53:00
6:53 PM,42.1,26.1,53,30.04,10.0,NE,3.5,-,N/A,,Clear,40,2012-11-07 23:53:00
7:53 PM,39.0,26.1,60,30.06,10.0,NNE,3.5,-,N/A,,Clear,30,2012-11-08 00:53:00
8:53 PM,37.0,25.0,62,30.07,10.0,North,3.5,-,N/A,,Clear,350,2012-11-08 01:53:00
9:53 PM,36.0,26.1,67,30.07,10.0,Calm,Calm,-,N/A,,Clear,0,2012-11-08 02:53:00
10:53 PM,33.1,25.0,72,30.09,10.0,Calm,Calm,-,N/A,,Clear,0,2012-11-08 03:53:00
11:53 PM,32.0,25.0,75,30.09,10.0,NNW,3.5,-,N/A,,Clear,340,2012-11-08 04:53:00